www.pogodaiklimat.ru

Погода и климат >> Архив погоды >> Индонезия >> Tanah Merah


ПОГОДА в Tanah Merah

  • Прогноз погоды в Tanah Merah
  • Монитор погоды в Tanah Merah
  • Климат города

АРХИВ ПОГОДЫ в Tanah Merah

Время (UTC), дата Ветер
(напр.,м/с)
 
Видим.   Явления Облачность Т
(С)
Тd
(С)
f
(%)
Тe
(С)
Тes
(С)
Комфортность P
(гПа)
Po
(гПа)
Тmin
(С)
Tmax
(С)
R
(мм)
R24
(мм)
S
(см)
21 10.07 штиль 0 5000 м 9/8 270 м
[Sc Ac As Ci sp]
+22.8 +22.5 98 +31 +31 очень
душно
1012.1 1008.9
00 11.07 ЮВ 4 7000 м 9/8 270 м
[Sc Ac As Ci sp]
+25.4 +22.3 83 +33 +34 очень
душно
1013.0 1009.8 +22.8 0.6
03 11.07 ЮВ 3 7000 м 9/8 270 м
[Cu Sc Ac trans Ci sp]
+27.6 +22.8 75 +37 +39 очень
душно
1011.2 1008.0
06 11.07 Ю 2 7000 м 9/8 270 м
[Cu Sc Ac trans Ci sp]
+27.7 +23.9 80 +38 +39 очень
душно
1008.9 1005.7
09 11.07 В 1 9000 м {дождь} 9/8 270 м
[Cu Sc Ac cuf Ci sp]
+26.1 +23.4 85 +35 +35 очень
душно
1010.2 1007.0 0.2
12 11.07 В 1 8000 м {дождь} 9/8 270 м
[Cu Sc Ac cuf Ci sp]
+25.3 +23.5 90 +34 +34 очень
душно
1012.0 1008.8 +28.8 0.2
15 11.07 ЮВ 2 7000 м в посл. час дождь 9/8 270 м
[Cu Sc Ac trans Ci sp]
+24.1 +23.4 96 +32 +32 очень
душно
1011.7 1008.5 0.2
18 11.07 ЮВ 1 2000 м слабый дождь 10/8 240 м
[Sc Ac As Ci sp]
+23.6 +22.5 94 +31 +31 очень
душно
1010.9 1007.7 0.4
21 11.07 ЮВ 1 6000 м {дождь} 10/8 240 м
[Sc Ac As Ci sp]
+23.3 +22.2 94 +32 +32 очень
душно
1011.7 1008.5 0.0
00 12.07 В 3 8000 м 9/8 240 м
[Sc Ac cuf Ci sp]
+25.1 +23.0 88 +33 +35 очень
душно
1012.8 1009.6 +23.3 0.8
03 12.07 ЮВ 2 10 км в посл. час дождь 8/6 270 м
[Cu Sc Ac trans Ci fib]
+26.2 +23.9 87 +36 +41 очень
душно
1010.4 1007.2 0.2
06 12.07 ЮВ 2 10 км в посл. час дождь 8/6 270 м
[Cu Sc Ac trans Ci fib]
+29.1 +23.8 73 +40 +42 очень
душно
1008.0 1004.9 0.4
09 12.07 штиль 0 7000 м {дождь} 8/6 270 м
[Sc Ac und Ci sp]
+27.3 +23.5 80 +37 +37 очень
душно
1009.0 1005.8 0.0
12 12.07 ЮВ 3 4000 м 10/8 240 м
[Sc Ac As Ci sp]
+25.1 +24.2 95 +35 +35 очень
душно
1011.3 1008.1 +29.1
15 12.07 штиль 0 5000 м {дождь} 10/8 240 м
[Sc Ac As Ci sp]
+24.4 +23.9 97 +33 +33 очень
душно
1010.7 1007.5 0.4
18 12.07 штиль 0 5000 м {дождь} 10/9 240 м
[Sc Ac As]
+23.8 +23.5 98 +32 +32 очень
душно
1010.1 1006.9 0.8
21 12.07 штиль 0 4000 м 10/8 240 м
[Cu Sc Ac lent Ci sp]
+23.7 +23.5 99 +32 +32 очень
душно
1011.0 1007.8
00 13.07 ЮВ 2 1000 м слабый дождь 10/8 240 м
[Sc Ac lent Ci sp]
+24.5 +23.3 93 +33 +34 очень
душно
1012.2 1009.0 +23.7 2
03 13.07 ЮВ 2 6000 м {дождь} 8/6 270 м
[Sc Ac lent Ci sp]
+25.8 +23.7 88 +35 +40 очень
душно
1010.7 1007.5 0.2
06 13.07 ЮВ 3 4000 м {дождь} 9/8 240 м
[Sc Ac lent Ci sp]
+27.6 +23.8 80 +38 +39 очень
душно
1008.2 1005.0 0.4
09 13.07 штиль 0 8000 м 9/8 240 м
[Sc Ac lent Ci sp]
+26.1 +24.5 91 +37 +37 очень
душно
1009.1 1005.9
12 13.07 штиль 0 7000 м 9/8 240 м
[Sc Ac cuf Ci sp]
+24.8 +24.3 97 +34 +34 очень
душно
1011.0 1007.8 +28.2
15 13.07 В 2 1000 м слабый дождь 10/8 210 м
[Sc As op]
+24.4 +24.2 99 +34 +34 очень
душно
1011.2 1008.0 7
18 13.07 штиль 0 1000 м слабый дождь 10/8 210 м
[Sc As op]
+24.0 +23.8 99 +33 +33 очень
душно
1009.8 1006.6 5
21 13.07 ЮВ 2 800 м слабый дождь 10/10 180 м
[Frnb Ns]
+23.9 +23.6 98 +32 +32 очень
душно
1010.6 1007.4 3
00 14.07 В 2 5000 м в посл. час дождь 10/8 210 м
[Sc Ac As Ci sp]
+24.5 +23.3 93 +33 +34 очень
душно
1011.6 1008.4 +23.8 0.6
03 14.07 ЮВ 3 7000 м 9/8 210 м
[Sc Ac As Ci sp]
+27.5 +24.1 82 +38 +41 очень
душно
1009.8 1006.6
06 14.07 ЮВ 2 7000 м дождь 9/8 210 м
[Sc Ac As Ci sp]
+26.8 +23.8 84 +37 +38 очень
душно
1007.4 1004.2 2
09 14.07 штиль 0 4000 м слабый дождь 10/8 210 м
[Sc Ac As Ci sp]
+26.2 +25.0 93 +37 +37 очень
душно
1008.4 1005.2 0.2
12 14.07 В 2 2000 м слабый дождь 10/9 210 м
[Sc Ac As]
+24.4 +24.2 99 +34 +34 очень
душно
1010.7 1007.5 +29.5 14
15 14.07 штиль 0 500 м слабый дождь 10/9 210 м
[Sc As op]
+24.3 +24.1 99 +33 +33 очень
душно
1010.5 1007.3 1
18 14.07 ЮВ 1 500 м слабый дождь 10/9 210 м
[Sc As op]
+24.2 +24.0 99 +33 +33 очень
душно
1009.5 1006.3 3
21 14.07 ЮВ 1 4000 м {дождь} 10/8 240 м
[Sc Ac lent Ci sp]
+23.9 +23.6 98 +32 +32 очень
душно
1010.3 1007.1 0.4
00 15.07 ЮВ 2 5000 м {дождь} 10/8 240 м
[Sc Ac lent Ci sp]
+25.0 +24.0 94 +34 +35 очень
душно
1011.7 1008.5 +23.9 21
03 15.07 ЮВ 3 5000 м в посл. час морось 10/8 240 м
[Sc Ac lent Ci sp]
+26.7 +24.0 85 +37 +38 очень
душно
1010.5 1007.3
06 15.07 ЮВ 2 7000 м в посл. час дождь 9/8 270 м
[Sc Ac lent Ci sp]
+26.6 +24.6 89 +38 +39 очень
душно
1007.5 1004.3 0.6
09 15.07 штиль 0 6000 м в посл. час дождь 10/8 240 м
[Sc Ac As Ci sp]
+25.4 +25.1 98 +36 +36 очень
душно
1008.8 1005.6 2
12 15.07 штиль 0 6000 м {дождь} 10/8 240 м
[Sc Ac As Ci sp]
+25.2 +25.0 99 +36 +36 очень
душно
1011.3 1008.1 +28.0 2
15 15.07 Ю 1 3000 м слабый дождь 10/8 270 м
[Sc Ac As Ci sp]
+24.7 +23.7 94 +34 +34 очень
душно
1011.0 1007.8 2
18 15.07 ЮВ 2 200 м сильный дождь 10/8 210 м
[Sc As op]
+23.5 +22.8 96 +31 +31 очень
душно
1010.6 1007.4 41
00 16.07 СЗ 2 5000 м {дождь} 10/8 210 м
[Sc Ac As Ci sp]
+25.0 +24.7 98 +35 +36 очень
душно
1012.7 1009.5 +23.3 83
03 16.07 ЮЗ 3 500 м дождь 10/8 240 м
[Sc Ac lent Ci sp]
+24.7 +24.4 98 +34 +36 очень
душно
1011.0 1007.8 16
06 16.07 С 1 2000 м слабый дождь 10/8 210 м
[Sc Ac As Ci sp]
+25.3 +24.4 95 +35 +36 очень
душно
1008.4 1005.2 15
12 16.07 штиль 0 3000 м 9/8 240 м
[Sc Ac As Ci sp]
+24.6 +24.4 99 +34 +34 очень
душно
1011.6 1008.4 +26.1 0.2
15 16.07 штиль 0 3000 м осадки на расстоянии {дождь} 9/8 210 м
[Sc Ac As Ci sp]
+24.4 +23.6 95 +33 +33 очень
душно
1010.8 1007.6 0.2
18 16.07 штиль 0 1000 м дымка 10/8 210 м
[Sc Ac As Ci sp]
+24.1 +23.5 96 +32 +32 очень
душно
1009.8 1006.6 0.2
21 16.07 штиль 0 5000 м 9/8 240 м
[Sc Ac As Ci sp]
+23.8 +23.6 99 +32 +32 очень
душно
1010.7 1007.5
00 17.07 штиль 0 5000 м 9/8 240 м
[Sc Ac lent Ci sp]
+26.2 +24.1 88 +36 +38 очень
душно
1011.8 1008.6 +23.7 31
03 17.07 С 2 7000 м 8/6 270 м
[Sc Ac lent Ci sp]
+29.1 +25.1 79 +42 +48 опасность
перегрева
1009.8 1006.7
06 17.07 Ю 1 4000 м в посл. час дождь 9/8 240 м
[Sc Ac lent Ci sp]
+26.6 +26.1 97 +40 +41 очень
душно
1008.0 1004.8 5
09 17.07 штиль 0 7000 м {дождь} 9/8 270 м
[Cb cap Ac lent Ci sp]
+26.0 +24.7 93 +37 +37 очень
душно
1008.4 1005.2 1
12 17.07 штиль 0 7000 м зарница 9/8 270 м
[Cb cap Ac lent Ci sp]
+25.4 +24.4 94 +35 +35 очень
душно
1011.0 1007.8 +30.0 1
15 17.07 штиль 0 6000 м в посл. час дождь 10/8 240 м
[Sc Ac As Ci sp]
+24.7 +24.5 99 +35 +35 очень
душно
1010.9 1007.7 0.8
18 17.07 В 1 5000 м {дождь} 10/8 240 м
[Sc Ac As Ci sp]
+24.3 +24.1 99 +33 +33 очень
душно
1009.4 1006.2 0.8

 

Местоположение метеостанции Tanah Merah (Индонезия): широта -6.10 долгота 140.30 высота над уровнем моря 16 м.

В архиве по умолчанию представлена погода в Tanah Merah за последнюю неделю. Архивные данные за месяц целиком и за предыдущие месяцы, начиная с января 2011 года, Вы можете получить, выбрав интересующий диапазон дат из раскрывающегося списка и нажав кнопку "Ввод!".


*Определитесь, кто Вы:
робот инопланетянин человек

Внимание! Время в таблицах - всемирное. Для получения местного времени необходимо прибавить поправку, которая в Tanah Merah равна 9 ч.

Смотрите также архив погоды в соседних городах и на ближайших метеорологических станциях:

Погода в Merauke (Индонезия) (264 км)
Погода в Wamena (Индонезия) (271 км)
Погода в Kokonao (Индонезия) (338 км)
Погода в Sentani Airport (Индонезия) (392 км)
Погода в Jayapura (Индонезия) (393 км)
Погода в Enarotali (Индонезия) (498 км)
Погода в Sarmi (Индонезия) (507 км)
Погода в Coconut Island (Квинсленд, Австралия) (535 км)
Погода в Horn Island (Квинсленд, Австралия) (544 км)
Погода в Nabire (Индонезия) (615 км)

Пояснения к столбцам:

Ветер - указаны скорость ветра в м/с - средняя за 10 мин, порывы в срок и между сроками (в фигурных скобках) и направление, откуда дует ветер: С - северный, СВ - северо-восточный, В - восточный, ЮВ - юго-восточный, Ю - южный, ЮЗ - юго-западный, З - западный, СЗ - северо-западный.
Видимость - горизонтальная дальность видимости в метрах или километрах. При видимости от 1 до 10 км при отсутствии осадков обычно наблюдается дымка, при ухудшении видимости до 1 км и менее - туман. В сухую погоду видимость может ухудшаться дымом, пылью или мглою.
Явления - указаны атмосферные явления, наблюдавшиеся в срок или в последний час перед сроком; фигурными скобками обозначены явления, наблюдавшиеся между сроками (за 1-3 часа до срока); квадратными скобками обозначены град или гололедные отложения с указанием их диаметра в мм.
Облачность - указаны через наклонную черту общая и нижняя облачность в баллах и высота нижней границы облаков в метрах; квадратными скобками обозначены формы облаков: Ci - перистые, Cs - перисто-слоистые, Cc - перисто-кучевые, Ac - высококучевые, As - высокослоистые, Sc - слоисто-кучевые, Ns - слоисто-дождевые, Cu - кучевые, Cb - кучево-дождевые. Подробнее классификацию облаков см. в Атласе облаков (PDF).
T - Температура воздуха - температура, измеренная на высоте 2 м над землей.
Td - Температура точки росы - температура, при понижении до которой содержащийся в воздухе водяной пар достигнет насыщения.
f - Относительная влажность воздуха - влажноcть воздуха, измеренная на высоте 2 м над землей.
Te - Эффективная температура - температура, которую ощущает одетый по сезону человек в тени. Характеристика душности погоды. При расчете учитывается влияние влажности воздуха и скорости ветра на теплоощущения человека.
Tes - Эффективная температура на солнце - температура, которую ощущает человек, с поправкой на солнечный нагрев. Характеристика знойности погоды. Зависит от высоты солнца над горизонтом, облачности и скорости ветра. Ночью, в пасмурную погоду, а также при ветре 12 м/с и более поправка равна нулю.
P - Атмосферное давление - приведенное к уровню моря атмосферное давление.
Po - Атмосферное давление - измеренное на уровне метеостанции атмосферное давление.
Tmin - Минимальная температура - минимум температуры воздуха на высоте 2 м над землей.
Tmax - Максимальная температура - максимум температуры воздуха на высоте 2 м над землей.
R - Количество осадков - Количество выпавших осадков за период времени, мм. При наведении курсора мыши на число - период времени, за который выпало указанное количество осадков.
R24 - Количество осадков - Количество выпавших осадков за 24 часа, мм.
S - Снежный покров - Высота снежного покрова, см. При наведении курсора мыши на число - состояние снежного покрова и степень покрытия местности в баллах.